Menomonie, WI

3:57 PM CST on February 06, 2016 (GMT -0600)
Menomonie

Weather History for KLUM - January, 2013

Change the Weather History Date:

Thursday, January 3, 2013

  Actual Average (KEAU) Record (KEAU)
Temperature  
Mean Temperature 16 °F 15 °F  
Max Temperature 21 °F 23 °F 44 °F (1998)
Min Temperature 10 °F 6 °F -28 °F (1911)
Degree Days  
Heating Degree Days 50 50  
Month to date heating degree days 150  
Since 1 July heating degree days 3326  
Cooling Degree Days 0 0  
Month to date cooling degree days 0  
Year to date cooling degree days 0  
Moisture  
Dew Point 12 °F    
Average Humidity 80    
Maximum Humidity 93    
Minimum Humidity 68    
Precipitation  
Precipitation 0.00 in 0.02 in 1.20 in (1906)
Month to date precipitation 0.08  
Year to date precipitation 0.08  
Snow  
Snow 0.00 in 0.40 in 12.00 in (1906)
Month to date snowfall 1.1  
Since 1 July snowfall 16.9  
Snow Depth -    
Sea Level Pressure  
Sea Level Pressure 30.14 in    
Wind  
Wind Speed 6 mph (WSW)    
Max Wind Speed 12 mph    
Max Gust Speed 17 mph    
Visibility 7 miles    
Events Snow    
T = Trace of Precipitation, MM = Missing Value Source: NWS Daily Summary

Daily Weather History Graph

Daily Weather History Graph

Search for Another Location

Airport or City:

Trip Planner

Search our weather history database for the weather conditions in past years. The results will help you decide how hot, cold, wet, or windy it might be!

Date:

Astronomy

Jan. 03, 2013 Rise Set
Actual Time 7:45 AM CST 4:39 PM CST
Civil Twilight 7:11 AM CST 5:12 PM CST
Nautical Twilight 6:35 AM CST 5:49 PM CST
Astronomical Twilight 5:59 AM CST 6:25 PM CST
Moon 11:33 PM CST (1/3) 10:40 AM CST (1/3)
Length of Visible Light 10h 00m
Length of Day
8h 53m
Waning Gibbous, 65% of the Moon is Illuminated
Jan 3
Waning Gibbous
Jan 4
Last Quarter
Jan 11
New
Jan 18
First Quarter
Jan 26
Full

Hourly Weather History & Observations

Time (CST) Temp. Windchill Dew Point Humidity Pressure Visibility Wind Dir Wind Speed Gust Speed Precip Events Conditions
12:15 AM 17.6 °F 12.3 °F 12.2 °F 79% 30.05 in 5.0 mi WSW 3.5 mph - N/A   Haze
12:35 AM 17.6 °F - 12.2 °F 79% 30.05 in 5.0 mi Calm Calm - N/A   Haze
12:55 AM 17.6 °F 12.3 °F 14.0 °F 86% 30.05 in 5.0 mi West 3.5 mph - N/A   Overcast
1:15 AM 17.6 °F - 14.0 °F 86% 30.05 in 5.0 mi Calm Calm - N/A   Overcast
1:35 AM 17.6 °F 12.3 °F 14.0 °F 86% 30.05 in 4.0 mi WSW 3.5 mph - N/A   Overcast
1:55 AM 19.4 °F 12.8 °F 14.0 °F 80% 30.05 in 4.0 mi WSW 4.6 mph - N/A   Overcast
2:15 AM 19.4 °F 14.3 °F 15.8 °F 86% 30.06 in 4.0 mi West 3.5 mph - N/A   Overcast
2:35 AM 19.4 °F - 15.8 °F 86% 30.07 in 3.0 mi Calm Calm - N/A   Overcast
2:55 AM 19.4 °F 14.3 °F 15.8 °F 86% 30.07 in 3.0 mi West 3.5 mph - N/A   Overcast
3:15 AM 19.4 °F 12.8 °F 17.6 °F 93% 30.07 in 3.0 mi West 4.6 mph - N/A   Overcast
3:35 AM 19.4 °F 11.5 °F 17.6 °F 93% 30.07 in 4.0 mi West 5.8 mph - N/A   Overcast
3:55 AM 21.2 °F 12.6 °F 17.6 °F 86% 30.07 in 4.0 mi West 6.9 mph - N/A   Overcast
4:15 AM 21.2 °F 13.6 °F 17.6 °F 86% 30.07 in 4.0 mi West 5.8 mph - N/A   Overcast
4:35 AM 21.2 °F 11.7 °F 19.4 °F 93% 30.08 in 4.0 mi West 8.1 mph - N/A Snow Light Snow
4:55 AM 21.2 °F 10.1 °F 19.4 °F 93% 30.09 in 5.0 mi West 10.4 mph - N/A   Overcast
5:15 AM 21.2 °F 10.9 °F 19.4 °F 93% 30.09 in 5.0 mi West 9.2 mph - N/A   Overcast
5:35 AM 21.2 °F 11.7 °F 19.4 °F 93% 30.10 in 5.0 mi West 8.1 mph - N/A   Overcast
6:15 AM 21.2 °F 10.9 °F 19.4 °F 93% 30.12 in 5.0 mi West 9.2 mph - N/A Snow Light Snow
6:55 AM 21.2 °F 10.9 °F 17.6 °F 86% 30.13 in 5.0 mi West 9.2 mph - N/A Snow Light Snow
7:15 AM 21.2 °F 10.9 °F 17.6 °F 86% 30.13 in 7.0 mi West 9.2 mph - N/A Snow Light Snow
7:35 AM 21.2 °F 10.1 °F 17.6 °F 86% 30.13 in 7.0 mi West 10.4 mph - N/A Snow Light Snow
7:55 AM 21.2 °F 9.5 °F 17.6 °F 86% 30.14 in 7.0 mi West 11.5 mph - N/A   Overcast
8:15 AM 21.2 °F 10.9 °F 15.8 °F 80% 30.15 in 7.0 mi West 9.2 mph - N/A   Overcast
8:35 AM 21.2 °F 11.7 °F 15.8 °F 80% 30.16 in 7.0 mi West 8.1 mph - N/A   Overcast
8:55 AM 19.4 °F 7.9 °F 14.0 °F 80% 30.17 in 7.0 mi West 10.4 mph - N/A   Overcast
9:15 AM 19.4 °F 7.9 °F 14.0 °F 80% 30.18 in 5.0 mi West 10.4 mph 16.1 mph N/A   Haze
9:35 AM 19.4 °F 7.2 °F 14.0 °F 80% 30.18 in 5.0 mi West 11.5 mph - N/A Snow Light Snow
9:55 AM 19.4 °F 7.9 °F 14.0 °F 80% 30.19 in 4.0 mi West 10.4 mph - N/A Snow Light Snow
10:15 AM 19.4 °F 7.9 °F 14.0 °F 80% 30.20 in 3.0 mi West 10.4 mph - N/A Snow Light Snow
10:35 AM 19.4 °F 8.6 °F 14.0 °F 80% 30.20 in 3.0 mi West 9.2 mph - N/A Snow Light Snow
10:55 AM 19.4 °F 8.6 °F 14.0 °F 80% 30.20 in 4.0 mi West 9.2 mph - N/A Snow Light Snow
11:15 AM 19.4 °F 9.5 °F 14.0 °F 80% 30.20 in 5.0 mi West 8.1 mph - N/A Snow Light Snow
11:35 AM 19.4 °F 7.9 °F 12.2 °F 74% 30.20 in 4.0 mi WNW 10.4 mph - N/A Snow Light Snow
11:55 AM 19.4 °F 7.2 °F 12.2 °F 74% 30.19 in 7.0 mi West 11.5 mph - N/A Snow Light Snow
12:15 PM 19.4 °F 7.2 °F 12.2 °F 74% 30.19 in 7.0 mi West 11.5 mph 17.3 mph N/A Snow Light Snow
12:35 PM 19.4 °F 7.9 °F 12.2 °F 74% 30.18 in 7.0 mi WNW 10.4 mph 16.1 mph N/A Snow Light Snow
12:55 PM 19.4 °F 8.6 °F 12.2 °F 74% 30.18 in 5.0 mi West 9.2 mph - N/A Snow Light Snow
1:15 PM 19.4 °F 7.2 °F 12.2 °F 74% 30.18 in 5.0 mi WSW 11.5 mph - N/A Snow Light Snow
1:35 PM 19.4 °F 9.5 °F 12.2 °F 74% 30.18 in 7.0 mi West 8.1 mph - N/A Snow Light Snow
1:55 PM 19.4 °F 10.4 °F 12.2 °F 74% 30.18 in 7.0 mi WSW 6.9 mph - N/A Snow Light Snow
2:15 PM 19.4 °F 9.5 °F 12.2 °F 74% 30.18 in 7.0 mi West 8.1 mph - N/A   Overcast
2:35 PM 19.4 °F 7.9 °F 10.4 °F 68% 30.19 in 10.0 mi WSW 10.4 mph - N/A   Overcast
2:55 PM 19.4 °F 8.6 °F 10.4 °F 68% 30.19 in 10.0 mi West 9.2 mph - N/A   Scattered Clouds
3:15 PM 19.4 °F 7.9 °F 10.4 °F 68% 30.18 in 10.0 mi WSW 10.4 mph - N/A   Clear
3:35 PM 19.4 °F 8.6 °F 10.4 °F 68% 30.19 in 10.0 mi West 9.2 mph - N/A   Clear
4:15 PM 17.6 °F 6.4 °F 10.4 °F 73% 30.20 in 10.0 mi WSW 9.2 mph - N/A   Clear
4:35 PM 17.6 °F 5.0 °F 8.6 °F 68% 30.20 in 10.0 mi WSW 11.5 mph - N/A   Clear
4:55 PM 15.8 °F 3.4 °F 8.6 °F 73% 30.20 in 10.0 mi SW 10.4 mph - N/A   Clear
5:15 PM 14.0 °F 1.2 °F 8.6 °F 79% 30.20 in 10.0 mi SW 10.4 mph - N/A   Clear
5:35 PM 14.0 °F 1.2 °F 6.8 °F 73% 30.20 in 10.0 mi SW 10.4 mph - N/A   Clear
6:15 PM 12.2 °F 0.7 °F 5.0 °F 73% 30.20 in 10.0 mi SW 8.1 mph - N/A   Clear
6:35 PM 12.2 °F 1.7 °F 5.0 °F 73% 30.20 in 10.0 mi SW 6.9 mph - N/A   Clear
6:55 PM 10.4 °F -1.5 °F 3.2 °F 73% 30.20 in 10.0 mi SW 8.1 mph - N/A   Clear
7:15 PM 10.4 °F 2.2 °F 3.2 °F 73% 30.19 in 10.0 mi SSW 4.6 mph - N/A   Clear
7:35 PM 10.4 °F -0.4 °F 3.2 °F 73% 30.18 in 10.0 mi SW 6.9 mph - N/A   Clear
7:55 PM 10.4 °F 0.8 °F 3.2 °F 73% 30.18 in 10.0 mi SSW 5.8 mph - N/A   Clear
8:15 PM 10.4 °F 0.8 °F 3.2 °F 73% 30.17 in 10.0 mi SSW 5.8 mph - N/A   Clear
8:35 PM 10.4 °F 0.8 °F 3.2 °F 73% 30.16 in 10.0 mi SW 5.8 mph - N/A   Clear
9:15 PM 10.4 °F 2.2 °F 5.0 °F 79% 30.14 in 10.0 mi SSW 4.6 mph - N/A   Clear
9:35 PM 10.4 °F 0.8 °F 5.0 °F 79% 30.13 in 10.0 mi SSW 5.8 mph - N/A   Clear
9:55 PM 10.4 °F 2.2 °F 5.0 °F 79% 30.14 in 10.0 mi SSW 4.6 mph - N/A   Clear
10:15 PM 10.4 °F 0.8 °F 5.0 °F 79% 30.13 in 10.0 mi SSW 5.8 mph - N/A   Clear
10:35 PM 10.4 °F -0.4 °F 5.0 °F 79% 30.13 in 10.0 mi SSW 6.9 mph - N/A   Clear
10:55 PM 10.4 °F -0.4 °F 6.8 °F 85% 30.12 in 10.0 mi SSW 6.9 mph - N/A   Clear
11:15 PM 12.2 °F -1.0 °F 6.8 °F 79% 30.11 in 10.0 mi SSW 10.4 mph - N/A   Clear
11:35 PM 12.2 °F -0.2 °F 8.6 °F 85% 30.10 in 10.0 mi SSW 9.2 mph - N/A   Clear
11:55 PM 12.2 °F -0.2 °F 8.6 °F 85% 30.09 in 10.0 mi SSW 9.2 mph - N/A   Clear